Flight Track Log - Related Links

Times and Time Zones

All times are in EDT time to prevent confusion due to time zone crossing. See the UCA4838 flight status page for this flight to view local times or setup timezone preferences in your user account.

Time Position Orientation Groundspeed Altitude Reporting Facility
EDT Latitude Longitude Course Direction KTS MPH feet Rate Location/Type
Thu 09:46:14 AM 42.7297 -73.8081 179° South 120 138 1,200  Level Boston Center
Thu 09:47:09 AM 42.6986 -73.8075 179° South 131 151 1,900 1,034 Climbing Boston Center
Thu 09:48:10 AM 42.6628 -73.8347 209° Southwest 164 189 3,200 1,289 Climbing Boston Center
Thu 09:49:10 AM 42.6228 -73.8706 213° Southwest 165 190 4,500 1,289 Climbing Boston Center
Thu 09:50:11 AM 42.5828 -73.9036 211° Southwest 162 186 5,800 1,230 Climbing Boston Center
Thu 09:51:12 AM 42.5428 -73.9364 211° Southwest 163 188 7,000 1,190 Climbing Boston Center
Thu 09:52:12 AM 42.5047 -73.9664 210° Southwest 166 191 8,200 1,094 Climbing Boston Center
Thu 09:53:51 AM 42.4436 -74.0156 211° Southwest 181 208 9,900 642 Climbing Boston Center
Thu 09:54:51 AM 42.3908 -74.0564 210° Southwest 191 220 9,900  Level Boston Center
Thu 09:55:51 AM 42.3444 -74.0947 211° Southwest 210 242 9,900  Level Boston Center
Thu 09:56:51 AM 42.2856 -74.1436 212° Southwest 219 252 9,900  Level Boston Center
Thu 09:57:51 AM 42.2328 -74.1869 211° Southwest 224 258 9,900  Level Boston Center
Thu 09:58:51 AM 42.1758 -74.2275 208° Southwest 229 264 9,900  Level Boston Center
Thu 09:59:51 AM 42.1231 -74.2653 208° Southwest 229 264 9,900  Level Boston Center
Thu 10:00:51 AM 42.0703 -74.3056 210° Southwest 229 264 9,900 50 Level Boston Center
Thu 10:01:51 AM 42.0133 -74.3458 208° Southwest 234 269 10,000 -450 Climbing Boston Center
Thu 10:02:51 AM 41.9564 -74.3858 208° Southwest 234 269 9,000 -1,000 Descending Boston Center
Thu 10:03:51 AM 41.8994 -74.4261 208° Southwest 234 269 8,000 -500 Descending Boston Center
Thu 10:04:51 AM 41.8550 -74.4581 208° Southwest 234 269 8,000  Level Boston Center
Thu 10:05:51 AM 41.7939 -74.5064 211° Southwest 220 253 8,000  Level Boston Center
Thu 10:06:51 AM 41.7433 -74.5297 199° South 201 231 8,000  Level Boston Center
Thu 10:07:51 AM 41.6847 -74.5417 189° South 206 237 8,000 -250 Level Boston Center
Thu 10:08:51 AM 41.6283 -74.5508 187° South 226 260 7,500 -750 Descending Boston Center
Thu 10:09:51 AM 41.5550 -74.5678 190° South 240 276 6,500 -474 Descending Boston Center
Thu 10:12:01 AM 41.4167 -74.5500 174° South 249 287 6,000 -158 Descending New TRACON
Thu 10:13:01 AM 41.3500 -74.5000 151° Southeast 246 283 6,000 -500 Level New TRACON
Thu 10:14:01 AM 41.3000 -74.4667 153° Southeast 236 272 5,000 -500 Descending New TRACON
Thu 10:15:01 AM 41.2333 -74.4500 169° South 234 269 5,000  Level New TRACON
Thu 10:15:55 AM 41.1667 -74.4500 180° South 231 266 5,000  Level New TRACON
Thu 10:17:01 AM 41.1000 -74.4333 169° South 211 243 5,000  Level New TRACON
Thu 10:18:01 AM 41.1000 -74.3500 90° East 258 297 5,000 -175 Level New TRACON
Thu 10:20:00 AM 40.9851 -74.2986 173° South  Level Estimated
Thu 10:21:01 AM 41.0333 -74.1667 173° South 191 220 4,300  Level New TRACON
Thu 10:22:01 AM 40.9833 -74.1333 153° Southeast 185 213 4,000 -500 Descending New TRACON
Thu 10:23:01 AM 40.9333 -74.1167 166° South 188 216 3,300 -500 Descending New TRACON
Thu 10:24:01 AM 40.8833 -74.0833 153° Southeast 185 213 3,000 -150 Descending New TRACON
Thu 10:25:01 AM 40.8500 -74.0667 159° South 176 203 3,000 -567 Level New TRACON
Thu 10:27:01 AM 40.7667 -74.1167 204° Southwest 156 180 1,300 -767 Descending New TRACON
Thu 10:28:01 AM 40.7333 -74.1500 217° Southwest 108 124 700 -600 Descending New TRACON
Thu 10:30:00 AM 40.6925 -74.1687 201° Southwest  Level Estimated
Thu 10:37:00 AM 40.6925 -74.1687 201° Southwest  Level Estimated
Thu 10:38:00 AM 40.6925 -74.1687 201° Southwest  Level Estimated

Login

Don't have an account? Register now (free) for customized features, flight alerts, and more!